Ketchikan, AK

7:25 AM AKST on November 15, 2018 (GMT -0900)
Ketchikan International

Weather History for PAKT - March, 2018

Change the Weather History Date:

Saturday, March 17, 2018

  Actual Average Record
Temperature  
Mean Temperature 41 °F -  
Max Temperature 49 °F 44 °F 54 °F (1966)
Min Temperature 33 °F 32 °F 10 °F (2002)
Degree Days  
Heating Degree Days 24    
Month to date heating degree days 412  
Moisture  
Dew Point 36 °F    
Average Humidity 85    
Maximum Humidity 96    
Minimum Humidity 71    
Precipitation  
Precipitation 0.00 in - - ()
Month to date precipitation 3.74  
Year to date precipitation 24.17  
Sea Level Pressure  
Sea Level Pressure 29.93 in    
Wind  
Wind Speed 8 mph (NW)    
Max Wind Speed 16 mph    
Max Gust Speed 19 mph    
Visibility 10 miles    
Events      
Averages and records for this station are not official NWS values.
T = Trace of Precipitation, MM = Missing Value Source: NWS Daily Summary

Daily Weather History Graph

Daily Weather History Graph

Search for Another Location

Airport or City:

Astronomy

Mar. 17, 2018 Rise Set
Actual Time 6:56 AM AKDT 6:55 PM AKDT
Civil Twilight 6:19 AM AKDT 7:31 PM AKDT
Nautical Twilight 5:36 AM AKDT 8:14 PM AKDT
Astronomical Twilight 4:51 AM AKDT 9:00 PM AKDT
Moon 7:29 AM AKDT (3/17) 7:16 PM AKDT (3/17)
Length of Visible Light 13h 11m
Length of Day
11h 58m
New Moon, 0% of the Moon is Illuminated
Mar 17
New Moon
Mar 24
First Quarter
Mar 31
Full
Apr 7
Last Quarter
Apr 15
New

Hourly Weather History & Observations

Time (AKDT) Temp. Windchill Dew Point Humidity Pressure Visibility Wind Dir Wind Speed Gust Speed Precip Events Conditions
12:53 AM 37.9 °F 32.1 °F 36.0 °F 93% 29.91 in 10.0 mi NW 8.1 mph - N/A   Clear
1:53 AM 37.0 °F 31.0 °F 35.1 °F 93% 29.91 in 10.0 mi NW 8.1 mph - N/A   Clear
2:53 AM 37.9 °F 31.5 °F 36.0 °F 93% 29.89 in 10.0 mi WNW 9.2 mph - N/A   Clear
3:53 AM 37.9 °F 32.1 °F 35.1 °F 89% 29.89 in 10.0 mi NW 8.1 mph - N/A   Clear
4:53 AM 37.0 °F 31.6 °F 35.1 °F 93% 29.89 in 10.0 mi NW 6.9 mph - N/A   Clear
5:53 AM 37.0 °F 29.3 °F 36.0 °F 96% 29.89 in 10.0 mi NNW 11.5 mph - N/A   Clear
6:12 AM 37.0 °F 29.8 °F 36.0 °F 96% 29.89 in 10.0 mi NNW 10.4 mph - N/A   Clear
6:53 AM 37.4 °F 30.8 °F 35.6 °F 93% 29.90 in 10.0 mi NNW 9.2 mph - N/A   Clear
7:53 AM 37.9 °F 31.5 °F 35.1 °F 89% 29.91 in 10.0 mi NNW 9.2 mph - N/A   Partly Cloudy
8:53 AM 39.0 °F 32.3 °F 36.0 °F 89% 29.90 in 10.0 mi NNW 10.4 mph - N/A   Partly Cloudy
9:53 AM 41.0 °F 34.7 °F 37.0 °F 86% 29.91 in 10.0 mi NNW 10.4 mph - N/A   Clear
10:20 AM 42.1 °F 35.7 °F 37.0 °F 82% 29.90 in 10.0 mi NNW 11.5 mph - N/A   Partly Cloudy
10:53 AM 44.6 °F 37.8 °F 37.4 °F 76% 29.91 in 10.0 mi NNW 15.0 mph - N/A   Partly Cloudy
11:53 AM 44.6 °F 37.8 °F 37.4 °F 76% 29.91 in 10.0 mi NNW 15.0 mph - N/A   Clear
12:53 PM 46.4 °F 41.1 °F 37.4 °F 71% 29.92 in 10.0 mi NNW 11.5 mph - N/A   Clear
1:53 PM 46.4 °F 40.7 °F 37.4 °F 71% 29.91 in 10.0 mi NW 12.7 mph - N/A   Clear
2:53 PM 46.4 °F 41.1 °F 39.2 °F 76% 29.91 in 10.0 mi NW 11.5 mph - N/A   Clear
3:53 PM 46.4 °F 40.4 °F 37.4 °F 71% 29.92 in 10.0 mi NW 13.8 mph - N/A   Clear
4:53 PM 46.4 °F 41.5 °F 37.4 °F 71% 29.93 in 10.0 mi NW 10.4 mph - N/A   Clear
5:53 PM 44.6 °F 40.2 °F 39.2 °F 81% 29.94 in 10.0 mi NW 8.1 mph - N/A   Clear
6:53 PM 42.8 °F 37.5 °F 37.4 °F 81% 29.95 in 10.0 mi NW 9.2 mph - N/A   Clear
7:53 PM 42.1 °F 39.2 °F 36.0 °F 79% 29.97 in 10.0 mi WNW 4.6 mph - N/A   Clear
8:53 PM 36.0 °F - 34.0 °F 93% 29.98 in 10.0 mi Calm Calm - N/A   Clear
9:53 PM 37.0 °F - 35.1 °F 93% 30.00 in 10.0 mi Calm Calm - N/A   Clear
10:53 PM 39.0 °F 35.7 °F 36.0 °F 89% 30.01 in 10.0 mi WNW 4.6 mph - N/A   Clear
11:53 PM 37.0 °F - 35.1 °F 93% 30.03 in 10.0 mi Calm Calm - N/A   Clear